Weather History for Pinedale, WY

Change the Weather History Date:

Thursday, January 10, 2013

  Actual Average (KBPI) Record (KBPI)
Temperature  
Mean Temperature 20 °F 11 °F  
Max Temperature 32 °F 26 °F 43 °F (1983)
Min Temperature 8 °F -4 °F -25 °F (2011)
Degree Days  
Heating Degree Days 45 54  
Month to date heating degree days 540  
Since 1 July heating degree days 4979  
Cooling Degree Days 0 0  
Month to date cooling degree days 0  
Year to date cooling degree days 0  
Moisture  
Dew Point 18 °F    
Average Humidity 84    
Maximum Humidity 100    
Minimum Humidity 60    
Precipitation  
Precipitation 0.00 in 0.02 in 0.29 in (2005)
Month to date precipitation 0.11  
Year to date precipitation 0.11  
Sea Level Pressure  
Sea Level Pressure 29.59 in    
Wind  
Wind Speed 5 mph (ESE)    
Max Wind Speed 18 mph    
Max Gust Speed 24 mph    
Visibility 8 miles    
Events Snow    
T = Trace of Precipitation, MM = Missing Value Source: NWS Daily Summary

Daily Weather History Graph

Daily Weather History Graph

Search for Another Location

Airport:

Trip Planner

Search our weather history database for the weather conditions in past years. The results will help you decide how hot, cold, wet, or windy it might be!

Date:

Astronomy

Jan. 10, 2013 Rise Set
Actual Time 7:48 AM MST 5:05 PM MST
Civil Twilight 7:17 AM MST 5:36 PM MST
Nautical Twilight 6:42 AM MST 6:12 PM MST
Astronomical Twilight 6:08 AM MST 6:46 PM MST
Moon 6:31 AM MST (1/10) 4:17 PM MST (1/10)
Length of Visible Light 10h 19m
Length of Day
9h 16m
Waning Crescent, 2% of the Moon is Illuminated
Jan 10
Waning Crescent
Jan 11
New
Jan 18
First Quarter
Jan 26
Full
Feb 3
Last Quarter

Hourly Weather History & Observations

Time (MST) Temp. Windchill Dew Point Humidity Pressure Visibility Wind Dir Wind Speed Gust Speed Precip Events Conditions
1:15 AM 8.6 °F - 6.8 °F 92% 29.88 in 10.0 mi Calm Calm - N/A   Clear
1:35 AM 8.6 °F 0.1 °F 5.0 °F 85% 29.87 in 10.0 mi WNW 4.6 mph - N/A   Clear
1:55 AM 8.6 °F 2.0 °F 6.8 °F 92% 29.86 in 10.0 mi WNW 3.5 mph - N/A   Clear
2:15 AM 8.6 °F 2.0 °F 8.6 °F 100% 29.85 in 10.0 mi WNW 3.5 mph - N/A   Clear
2:35 AM 8.6 °F 2.0 °F 8.6 °F 100% 29.85 in 10.0 mi West 3.5 mph - N/A   Clear
2:55 AM 10.4 °F - 8.6 °F 92% 29.83 in 10.0 mi Calm Calm - N/A   Clear
3:15 AM 10.4 °F 4.0 °F 8.6 °F 92% 29.82 in 10.0 mi West 3.5 mph - N/A   Clear
3:35 AM 10.4 °F 4.0 °F 8.6 °F 92% 29.80 in 10.0 mi West 3.5 mph - N/A   Clear
3:55 AM 10.4 °F 2.2 °F 10.4 °F 100% 29.79 in 10.0 mi NW 4.6 mph - N/A   Scattered Clouds
4:15 AM 12.2 °F - 10.4 °F 92% 29.78 in 10.0 mi Calm Calm - N/A   Mostly Cloudy
4:35 AM 14.0 °F - 12.2 °F 93% 29.77 in 10.0 mi Calm Calm - N/A   Scattered Clouds
4:55 AM 12.2 °F - 10.4 °F 92% 29.75 in 10.0 mi Calm Calm - N/A   Clear
5:35 AM 12.2 °F 4.3 °F 10.4 °F 92% 29.75 in 10.0 mi West 4.6 mph - N/A   Scattered Clouds
5:55 AM 12.2 °F - 10.4 °F 92% 29.73 in 10.0 mi Calm Calm - N/A   Scattered Clouds
6:15 AM 12.2 °F - 12.2 °F 100% 29.74 in 10.0 mi Calm Calm - N/A   Scattered Clouds
6:35 AM 12.2 °F - 12.2 °F 100% 29.75 in 10.0 mi Calm Calm - N/A   Overcast
6:55 AM 12.2 °F 6.1 °F 12.2 °F 100% 29.73 in 10.0 mi East 3.5 mph - N/A   Overcast
7:35 AM 15.8 °F 4.2 °F 15.8 °F 100% 29.71 in 10.0 mi ESE 9.2 mph - N/A   Overcast
7:55 AM 17.6 °F 7.3 °F 15.8 °F 93% 29.70 in 10.0 mi East 8.1 mph - N/A   Scattered Clouds
8:15 AM 19.4 °F 12.8 °F 15.8 °F 86% 29.69 in 10.0 mi ESE 4.6 mph - N/A   Clear
8:55 AM 19.4 °F 14.3 °F 15.8 °F 86% 29.69 in 10.0 mi West 3.5 mph - N/A   Mostly Cloudy
9:15 AM 21.2 °F - 17.6 °F 86% 29.68 in 10.0 mi Calm Calm - N/A   Overcast
9:35 AM 21.2 °F 16.4 °F 19.4 °F 93% 29.67 in 10.0 mi East 3.5 mph - N/A   Overcast
9:55 AM 23.0 °F 15.8 °F 19.4 °F 86% 29.67 in 10.0 mi East 5.8 mph - N/A   Overcast
10:15 AM 26.6 °F 21.2 °F 19.4 °F 74% 29.67 in 10.0 mi SE 4.6 mph - N/A   Overcast
10:35 AM 26.6 °F 22.6 °F 19.4 °F 74% 29.66 in 10.0 mi ESE 3.5 mph - N/A   Overcast
10:55 AM 28.4 °F 24.6 °F 19.4 °F 69% 29.64 in 10.0 mi ESE 3.5 mph - N/A   Overcast
11:15 AM 30.2 °F 24.3 °F 21.2 °F 69% 29.63 in 10.0 mi East 5.8 mph - N/A   Overcast
11:35 AM 30.2 °F 24.3 °F 21.2 °F 69% 29.61 in 10.0 mi ESE 5.8 mph - N/A   Overcast
11:55 AM 32.0 °F 24.8 °F 21.2 °F 64% 29.60 in 10.0 mi SE 8.1 mph - N/A   Overcast
12:15 PM 32.0 °F 23.6 °F 19.4 °F 60% 29.58 in 10.0 mi ESE 10.4 mph - N/A   Overcast
12:35 PM 32.0 °F 22.5 °F 21.2 °F 64% 29.56 in 10.0 mi ESE 12.7 mph - N/A   Overcast
12:55 PM 32.0 °F 22.5 °F 21.2 °F 64% 29.55 in 10.0 mi ESE 12.7 mph - N/A   Overcast
1:15 PM 32.0 °F 23.0 °F 21.2 °F 64% 29.54 in 10.0 mi SE 11.5 mph - N/A   Overcast
1:35 PM 32.0 °F 22.1 °F 21.2 °F 64% 29.54 in 10.0 mi SSE 13.8 mph - N/A   Overcast
1:55 PM 32.0 °F 23.6 °F 21.2 °F 64% 29.54 in 10.0 mi SSE 10.4 mph - N/A   Overcast
2:15 PM 32.0 °F 24.8 °F 21.2 °F 64% 29.54 in 10.0 mi SSE 8.1 mph - N/A   Overcast
2:35 PM 32.0 °F 25.6 °F 21.2 °F 64% 29.54 in 10.0 mi SSE 6.9 mph - N/A   Overcast
2:55 PM 32.0 °F 26.4 °F 21.2 °F 64% 29.53 in 7.0 mi ESE 5.8 mph - N/A   Overcast
3:15 PM 32.0 °F 24.8 °F 21.2 °F 64% 29.51 in 10.0 mi ESE 8.1 mph - N/A   Overcast
3:35 PM 32.0 °F 24.2 °F 21.2 °F 64% 29.51 in 10.0 mi ESE 9.2 mph - N/A   Mostly Cloudy
3:55 PM 30.2 °F 23.4 °F 19.4 °F 64% 29.49 in 10.0 mi East 6.9 mph - N/A   Mostly Cloudy
4:15 PM 30.2 °F 24.3 °F 21.2 °F 69% 29.49 in 10.0 mi ESE 5.8 mph - N/A   Mostly Cloudy
4:35 PM 30.2 °F 26.7 °F 21.2 °F 69% 29.48 in 10.0 mi SE 3.5 mph - N/A   Overcast
4:55 PM 28.4 °F 23.3 °F 21.2 °F 74% 29.47 in 10.0 mi ESE 4.6 mph - N/A   Overcast
5:15 PM 28.4 °F 24.6 °F 21.2 °F 74% 29.47 in 10.0 mi SSE 3.5 mph - N/A   Overcast
5:35 PM 30.2 °F 23.4 °F 21.2 °F 69% 29.47 in 10.0 mi SSW 6.9 mph - N/A   Overcast
5:55 PM 28.4 °F 24.6 °F 26.6 °F 93% 29.47 in 0.8 mi WSW 3.5 mph - N/A Snow Snow
6:15 PM 26.6 °F - 26.6 °F 100% 29.46 in 4.0 mi Calm Calm - N/A Snow Light Snow
6:35 PM 26.6 °F 20.0 °F 26.6 °F 100% 29.45 in 1.5 mi East 5.8 mph - N/A Snow Light Snow
6:55 PM 26.6 °F 22.6 °F 26.6 °F 100% 29.45 in 1.0 mi East 3.5 mph - N/A Snow Snow
7:15 PM 26.6 °F 20.0 °F 26.6 °F 100% 29.43 in 1.0 mi East 5.8 mph - N/A Snow Snow
7:35 PM 26.6 °F 19.1 °F 26.6 °F 100% 29.43 in 0.8 mi East 6.9 mph - N/A Snow Snow
7:55 PM 26.6 °F 19.1 °F 26.6 °F 100% 29.42 in 3.0 mi East 6.9 mph - N/A Snow Light Snow
8:15 PM 26.6 °F 15.2 °F 23.0 °F 86% 29.41 in 10.0 mi ESE 13.8 mph - N/A   Overcast
8:35 PM 24.8 °F 13.4 °F 23.0 °F 93% 29.41 in 1.0 mi ESE 12.7 mph 17.3 mph N/A Snow Light Snow
8:55 PM 26.6 °F 13.4 °F 21.2 °F 80% 29.41 in 10.0 mi SE 18.4 mph 24.2 mph N/A   Overcast
9:15 PM 26.6 °F 15.7 °F 21.2 °F 80% 29.41 in 5.0 mi SE 12.7 mph - N/A Snow Light Snow
9:35 PM 23.0 °F 11.7 °F 23.0 °F 100% 29.41 in 0.5 mi ESE 11.5 mph - N/A Snow Heavy Snow
10:15 PM 23.0 °F 11.7 °F 23.0 °F 100% 29.39 in 1.2 mi ESE 11.5 mph - N/A Snow Light Snow
10:55 PM 24.8 °F 13.4 °F 24.8 °F 100% 29.38 in 1.2 mi ESE 12.7 mph - N/A Snow Light Snow
11:15 PM 23.0 °F 11.1 °F 23.0 °F 100% 29.37 in 0.8 mi ESE 12.7 mph - N/A Snow Light Snow
11:35 PM 23.0 °F 11.7 °F 23.0 °F 100% 29.37 in 2.0 mi ESE 11.5 mph - N/A Snow Light Snow
11:55 PM 23.0 °F 12.4 °F 23.0 °F 100% 29.37 in 1.0 mi ESE 10.4 mph - N/A Snow Snow